DW2778 Weather Reports


time (UTC)temp
C
wind
direction
speed
KPH
gust
KPH
rain 1hr
cm
rain 24hr
cm
rain mn
cm
humidity
%
barometer
mb
20260505041612 17 360 14.5 30.6 0.00 0.00 0.00 74 1013.1
20260505040057 17 194 12.9 29.0 0.00 0.00 0.00 74 1013.2
20260505034549 17 360 14.5 27.4 0.00 0.00 0.00 75 1013.2
20260505033051 17 360 16.1 30.6 0.00 0.00 0.00 75 1013.1
20260505031600 17 360 14.5 27.4 0.00 0.00 0.00 74 1013.0
20260505030052 17 360 11.3 30.6 0.00 0.00 0.00 74 1013.0
20260505024551 17 360 9.7 27.4 0.00 0.00 0.00 73 1013.1
20260505023102 17 196 14.5 27.4 0.00 0.00 0.00 72 1013.1
20260505021555 17 360 14.5 24.1 0.00 0.00 0.00 72 1013.0
20260505020052 17 360 12.9 25.7 0.00 0.00 0.00 71 1013.1
20260505014551 17 151 12.9 22.5 0.00 0.00 0.00 70 1013.1
20260505013059 17 360 14.5 25.7 0.00 0.00 0.00 69 1013.0
20260505011557 17 360 12.9 24.1 0.00 0.00 0.00 68 1013.0
20260505010050 17 179 11.3 29.0 0.00 0.00 0.00 67 1012.9
20260505004555 17 360 11.3 24.1 0.00 0.00 0.00 67 1012.9
20260505003059 18 360 9.7 19.3 0.00 0.00 0.00 66 1013.0
20260505001555 18 360 9.7 20.9 0.00 0.00 0.00 64 1013.0
20260505000100 19 360 9.7 19.3 0.00 0.00 0.00 62 1012.8
20260504234602 20 360 11.3 29.0 0.00 0.00 0.00 60 1012.6
20260504233057 20 360 12.9 25.7 0.00 0.00 0.00 58 1012.4
20260504231601 21 171 17.7 33.8 0.00 0.00 0.00 54 1012.2
20260504230057 21 190 12.9 37.0 0.00 0.00 0.00 51 1012.1
20260504224551 23 360 14.5 35.4 0.00 0.00 0.00 46 1012.2
20260504223054 23 221 12.9 32.2 0.00 0.00 0.00 35 1012.0
20260504221558 24 193 16.1 30.6 0.00 0.00 0.00 34 1012.1
20260504220054 24 200 16.1 33.8 0.00 0.00 0.00 33 1012.1
20260504214551 25 192 19.3 33.8 0.00 0.00 0.00 32 1012.3
20260504213053 25 254 19.3 41.8 0.00 0.00 0.00 32 1012.4
20260504211553 25 219 17.7 27.4 0.00 0.00 0.00 31 1012.3
20260504210108 25 211 14.5 32.2 0.00 0.00 0.00 32 1012.3
20260504204603 25 232 14.5 37.0 0.00 0.00 0.00 32 1012.3
20260504203054 25 211 9.7 29.0 0.00 0.00 0.00 32 1012.4
20260504201601 26 194 11.3 27.4 0.00 0.00 0.00 31 1012.6
20260504194606 26 181 12.9 30.6 0.00 0.00 0.00 31 1012.7
20260504193100 26 218 12.9 27.4 0.00 0.00 0.00 30 1012.7
20260504191554 27 229 9.7 24.1 0.00 0.00 0.00 29 1013.1
20260504190114 26 225 8.0 27.4 0.00 0.00 0.00 30 1013.3
20260504184558 26 201 14.5 22.5 0.00 0.00 0.00 30 1013.4
20260504183058 26 233 6.4 24.1 0.00 0.00 0.00 30 1013.5
20260504181557 25 249 12.9 24.1 0.00 0.00 0.00 30 1013.7
20260504180142 25 235 4.8 24.1 0.00 0.00 0.00 31 1013.7
20260504174553 25 224 11.3 27.4 0.00 0.00 0.00 31 1013.8
20260504173100 25 221 8.0 19.3 0.00 0.00 0.00 32 1013.9
20260504171553 24 241 12.9 24.1 0.00 0.00 0.00 32 1014.2
20260504140113 18 192 9.7 29.0 0.00 0.00 0.00 55 1016.0
20260504120111 12 360 11.3 22.5 0.00 0.00 0.00 73 1017.0
20260504081555 10 186 14.5 29.0 0.00 0.00 0.00 76 1017.3
20260504050120 10 360 12.9 19.3 0.00 0.00 0.00 60 1017.4
20260504044552 10 360 12.9 19.3 0.00 0.00 0.00 60 1017.2
20260504043059 10 360 12.9 22.5 0.00 0.00 0.00 59 1017.3